contact:dominique.lefevre@mio.osupytheas.fr, maurice.libes@osupytheas.fr, didier.mallarino@osupytheas.fr
Project:EMSO http://www.emso-fr.org/EMSO-France
Depth: 2436.0 m
Title:EMSO Ligure Ouest : Data MII capteur CSTAR
DateTime,Latitude,Longitude,Instrument_Serial,Reference_Counts,Signal_Counts,Corrected_Signal_raw_counts,Calculated_Beam_c_inverse_meters,Internal_thermistor_counts
DateTime,Latitude,Longitude,Instrument_Serial,Reference_Counts,Signal_Counts,Corrected_Signal_raw_counts,Calculated_Beam_c_inverse_meters,Internal_thermistor_counts
2022-07-14T00:02:16,42.805,6.029,CST-1368DR,4662,5266,12033,01.043,551
2022-07-14T00:05:18,42.805,6.029,CST-1368DR,4662,5264,12029,01.044,551
2022-07-14T00:08:19,42.805,6.029,CST-1368DR,4661,5265,12033,01.043,551
2022-07-14T00:11:21,42.805,6.029,CST-1368DR,4661,5264,12032,01.043,551
2022-07-14T00:14:22,42.805,6.029,CST-1368DR,4661,5264,12030,01.044,551
2022-07-14T00:17:24,42.805,6.029,CST-1368DR,4662,5265,12032,01.043,551
2022-07-14T00:20:26,42.805,6.029,CST-1368DR,4662,5265,12030,01.044,551
2022-07-14T00:23:27,42.805,6.029,CST-1368DR,4661,5264,12031,01.043,551
2022-07-14T00:26:29,42.805,6.029,CST-1368DR,4661,5265,12034,01.042,551
2022-07-14T00:29:30,42.805,6.029,CST-1368DR,4662,5266,12033,01.043,551
2022-07-14T00:32:32,42.805,6.029,CST-1368DR,4662,5263,12027,01.045,551
2022-07-14T00:35:34,42.805,6.029,CST-1368DR,4661,5264,12030,01.044,551
2022-07-14T00:38:35,42.805,6.029,CST-1368DR,4661,5265,12033,01.043,551
2022-07-14T00:41:37,42.805,6.029,CST-1368DR,4661,5264,12031,01.043,551
2022-07-14T00:44:38,42.805,6.029,CST-1368DR,4661,5262,12027,01.045,551
2022-07-14T00:47:40,42.805,6.029,CST-1368DR,4662,5262,12025,01.045,551
2022-07-14T00:50:41,42.805,6.029,CST-1368DR,4662,5265,12031,01.043,551
2022-07-14T00:53:43,42.805,6.029,CST-1368DR,4661,5264,12031,01.043,551
2022-07-14T00:56:45,42.805,6.029,CST-1368DR,4661,5262,12028,01.044,551
2022-07-14T00:59:46,42.805,6.029,CST-1368DR,4661,5263,12028,01.044,551
2022-07-14T01:02:48,42.805,6.029,CST-1368DR,4661,5265,12034,01.042,551
2022-07-14T01:05:49,42.805,6.029,CST-1368DR,4661,5265,12033,01.043,551
2022-07-14T01:08:51,42.805,6.029,CST-1368DR,4661,5264,12030,01.044,551
2022-07-14T01:11:52,42.805,6.029,CST-1368DR,4661,5265,12034,01.042,551
2022-07-14T01:14:54,42.805,6.029,CST-1368DR,4661,5265,12033,01.043,551
2022-07-14T01:17:56,42.805,6.029,CST-1368DR,4661,5264,12030,01.044,551
2022-07-14T01:20:57,42.805,6.029,CST-1368DR,4661,5262,12026,01.045,551
2022-07-14T01:23:59,42.805,6.029,CST-1368DR,4661,5264,12031,01.043,551
2022-07-14T01:27:00,42.805,6.029,CST-1368DR,4661,5264,12031,01.043,551
2022-07-14T01:30:02,42.805,6.029,CST-1368DR,4661,5261,12024,01.046,550
2022-07-14T01:33:04,42.805,6.029,CST-1368DR,4661,5263,12028,01.044,551
2022-07-14T01:36:05,42.805,6.029,CST-1368DR,4661,5259,12019,01.047,551
2022-07-14T01:39:07,42.805,6.029,CST-1368DR,4661,5264,12031,01.043,551
2022-07-14T01:42:08,42.805,6.029,CST-1368DR,4661,5259,12020,01.047,551
2022-07-14T01:45:10,42.805,6.029,CST-1368DR,4661,5261,12024,01.046,551
2022-07-14T01:48:11,42.805,6.029,CST-1368DR,4661,5262,12028,01.044,551
2022-07-14T01:51:13,42.805,6.029,CST-1368DR,4661,5262,12026,01.045,551
2022-07-14T01:54:15,42.805,6.029,CST-1368DR,4661,5260,12023,01.046,550
2022-07-14T01:57:16,42.805,6.029,CST-1368DR,4661,5260,12023,01.046,551
2022-07-14T02:00:18,42.805,6.029,CST-1368DR,4661,5261,12025,01.045,551
2022-07-14T02:03:19,42.805,6.029,CST-1368DR,4661,5260,12023,01.046,551
2022-07-14T02:06:21,42.805,6.029,CST-1368DR,4661,5256,12012,01.050,551
2022-07-14T02:09:22,42.805,6.029,CST-1368DR,4661,5259,12021,01.047,551
2022-07-14T02:12:24,42.805,6.029,CST-1368DR,4661,5262,12028,01.044,551
2022-07-14T02:15:26,42.805,6.029,CST-1368DR,4661,5261,12025,01.045,551
2022-07-14T02:18:27,42.805,6.029,CST-1368DR,4661,5255,12012,01.050,551
2022-07-14T02:21:29,42.805,6.029,CST-1368DR,4661,5260,12022,01.046,551
2022-07-14T02:24:30,42.805,6.029,CST-1368DR,4661,5258,12018,01.048,551
2022-07-14T02:27:32,42.805,6.029,CST-1368DR,4661,5253,12007,01.051,551
2022-07-14T02:30:34,42.805,6.029,CST-1368DR,4661,5250,11999,01.054,551
2022-07-14T02:33:35,42.805,6.029,CST-1368DR,4661,5246,11990,01.057,551
2022-07-14T02:36:37,42.805,6.029,CST-1368DR,4661,5248,11994,01.056,551
2022-07-14T02:39:38,42.805,6.029,CST-1368DR,4661,5245,11989,01.057,551
2022-07-14T02:42:40,42.805,6.029,CST-1368DR,4661,5245,11988,01.058,551
2022-07-14T02:45:41,42.805,6.029,CST-1368DR,4661,5251,12002,01.053,551
2022-07-14T02:48:43,42.805,6.029,CST-1368DR,4661,5252,12003,01.053,551
2022-07-14T02:51:45,42.805,6.029,CST-1368DR,4661,5245,11988,01.058,551
2022-07-14T02:54:46,42.805,6.029,CST-1368DR,4661,5236,11968,01.064,551
2022-07-14T02:57:48,42.805,6.029,CST-1368DR,4661,5241,11980,01.060,551
2022-07-14T03:00:49,42.805,6.029,CST-1368DR,4661,5229,11950,01.070,551
2022-07-14T03:03:51,42.805,6.029,CST-1368DR,4661,5240,11976,01.062,551
2022-07-14T03:06:52,42.805,6.029,CST-1368DR,4661,5234,11962,01.066,551
2022-07-14T03:09:54,42.805,6.029,CST-1368DR,4661,5233,11961,01.067,551
2022-07-14T03:12:56,42.805,6.029,CST-1368DR,4661,5235,11966,01.065,551
2022-07-14T03:15:57,42.805,6.029,CST-1368DR,4661,5237,11970,01.064,551
2022-07-14T03:18:59,42.805,6.029,CST-1368DR,4661,5227,11947,01.071,551
2022-07-14T03:22:00,42.805,6.029,CST-1368DR,4661,5222,11936,01.075,551
2022-07-14T03:25:02,42.805,6.029,CST-1368DR,4661,5215,11918,01.081,551
2022-07-14T03:28:04,42.805,6.029,CST-1368DR,4661,5213,11914,01.082,551
2022-07-14T03:31:05,42.805,6.029,CST-1368DR,4661,5211,11909,01.084,551
2022-07-14T03:34:07,42.805,6.029,CST-1368DR,4661,5198,11880,01.094,551
2022-07-14T03:37:08,42.805,6.029,CST-1368DR,4661,5199,11883,01.093,551
2022-07-14T03:40:10,42.805,6.029,CST-1368DR,4661,5199,11884,01.092,551
2022-07-14T03:43:11,42.805,6.029,CST-1368DR,4661,5213,11914,01.082,551
2022-07-14T03:46:13,42.805,6.029,CST-1368DR,4661,5197,11879,01.094,551
2022-07-14T03:49:15,42.805,6.029,CST-1368DR,4661,5196,11877,01.095,551
2022-07-14T03:52:16,42.805,6.029,CST-1368DR,4661,5196,11876,01.095,551
2022-07-14T03:55:18,42.805,6.029,CST-1368DR,4661,5196,11877,01.095,551
2022-07-14T03:58:19,42.805,6.029,CST-1368DR,4661,5203,11892,01.090,551
2022-07-14T04:01:21,42.805,6.029,CST-1368DR,4661,5219,11928,01.078,551
2022-07-14T04:04:22,42.805,6.029,CST-1368DR,4661,5195,11873,01.096,551
2022-07-14T04:07:24,42.805,6.029,CST-1368DR,4661,5189,11860,01.100,551
2022-07-14T04:10:26,42.805,6.029,CST-1368DR,4661,5192,11866,01.098,551
2022-07-14T04:13:27,42.805,6.029,CST-1368DR,4661,5178,11835,01.109,551
2022-07-14T04:16:29,42.805,6.029,CST-1368DR,4661,5192,11866,01.098,551
2022-07-14T04:19:30,42.805,6.029,CST-1368DR,4661,5190,11863,01.099,551
2022-07-14T04:22:32,42.805,6.029,CST-1368DR,4661,5178,11836,01.109,551
2022-07-14T04:25:34,42.805,6.029,CST-1368DR,4661,5176,11831,01.110,551
2022-07-14T04:28:35,42.805,6.029,CST-1368DR,4661,5182,11844,01.106,551
2022-07-14T04:31:37,42.805,6.029,CST-1368DR,4661,5168,11813,01.116,551
2022-07-14T04:34:38,42.805,6.029,CST-1368DR,4661,5169,11814,01.116,551
2022-07-14T04:37:40,42.805,6.029,CST-1368DR,4661,5174,11825,01.112,551
2022-07-14T04:40:41,42.805,6.029,CST-1368DR,4661,5167,11810,01.117,551
2022-07-14T04:43:43,42.805,6.029,CST-1368DR,4660,5161,11797,01.122,551
2022-07-14T04:46:45,42.805,6.029,CST-1368DR,4660,5163,11802,01.120,551
2022-07-14T04:49:46,42.805,6.029,CST-1368DR,4661,5177,11833,01.110,551
2022-07-14T04:52:48,42.805,6.029,CST-1368DR,4661,5175,11828,01.111,551
2022-07-14T04:55:49,42.805,6.029,CST-1368DR,4660,5161,11797,01.122,551
2022-07-14T04:58:51,42.805,6.029,CST-1368DR,4661,5174,11826,01.112,551
2022-07-14T05:01:53,42.805,6.029,CST-1368DR,4660,5156,11787,01.125,551
2022-07-14T05:04:54,42.805,6.029,CST-1368DR,4661,5162,11798,01.121,551
2022-07-14T05:07:56,42.805,6.029,CST-1368DR,4661,5165,11805,01.119,551
2022-07-14T05:10:57,42.805,6.029,CST-1368DR,4660,5159,11795,01.122,551
2022-07-14T05:13:59,42.805,6.029,CST-1368DR,4661,5165,11805,01.119,551
2022-07-14T05:17:00,42.805,6.029,CST-1368DR,4661,5165,11806,01.119,551
2022-07-14T05:20:02,42.805,6.029,CST-1368DR,4661,5169,11815,01.116,551
2022-07-14T05:23:04,42.805,6.029,CST-1368DR,4661,5167,11810,01.117,551
2022-07-14T05:26:05,42.805,6.029,CST-1368DR,4660,5160,11795,01.122,551
2022-07-14T05:29:07,42.805,6.029,CST-1368DR,4661,5162,11797,01.122,551
2022-07-14T05:32:08,42.805,6.029,CST-1368DR,4660,5165,11807,01.118,551
2022-07-14T05:35:10,42.805,6.029,CST-1368DR,4660,5166,11811,01.117,551
2022-07-14T05:38:11,42.805,6.029,CST-1368DR,4660,5161,11799,01.121,551
2022-07-14T05:41:13,42.805,6.029,CST-1368DR,4660,5155,11784,01.126,551
2022-07-14T05:44:15,42.805,6.029,CST-1368DR,4660,5166,11809,01.118,551
2022-07-14T05:47:16,42.805,6.029,CST-1368DR,4660,5166,11809,01.118,551
2022-07-14T05:50:18,42.805,6.029,CST-1368DR,4660,5164,11805,01.119,551
2022-07-14T05:53:19,42.805,6.029,CST-1368DR,4660,5165,11807,01.118,551
2022-07-14T05:56:21,42.805,6.029,CST-1368DR,4660,5161,11799,01.121,551
2022-07-14T05:59:23,42.805,6.029,CST-1368DR,4660,5162,11801,01.120,551
2022-07-14T06:02:24,42.805,6.029,CST-1368DR,4660,5163,11803,01.120,551
2022-07-14T06:05:26,42.805,6.029,CST-1368DR,4660,5154,11781,01.127,551
2022-07-14T06:08:27,42.805,6.029,CST-1368DR,4660,5142,11755,01.136,551
2022-07-14T06:11:29,42.805,6.029,CST-1368DR,4661,5177,11833,01.110,551
2022-07-14T06:14:30,42.805,6.029,CST-1368DR,4660,5175,11829,01.111,551
2022-07-14T06:17:32,42.805,6.029,CST-1368DR,4660,5155,11785,01.126,551
2022-07-14T06:20:34,42.805,6.029,CST-1368DR,4660,5168,11814,01.116,551
2022-07-14T06:23:35,42.805,6.029,CST-1368DR,4660,5155,11785,01.126,551
2022-07-14T06:26:37,42.805,6.029,CST-1368DR,4660,5147,11767,01.132,551
2022-07-14T06:29:38,42.805,6.029,CST-1368DR,4660,5162,11800,01.121,551
2022-07-14T06:32:40,42.805,6.029,CST-1368DR,4660,5162,11800,01.121,551
2022-07-14T06:35:41,42.805,6.029,CST-1368DR,4660,5139,11748,01.138,551
2022-07-14T06:38:43,42.805,6.029,CST-1368DR,4660,5160,11795,01.122,551
2022-07-14T06:41:45,42.805,6.029,CST-1368DR,4660,5168,11815,01.116,551
2022-07-14T06:44:46,42.805,6.029,CST-1368DR,4660,5152,11778,01.128,551
2022-07-14T06:47:48,42.805,6.029,CST-1368DR,4660,5155,11784,01.126,551
2022-07-14T06:50:49,42.805,6.029,CST-1368DR,4660,5162,11801,01.120,551
2022-07-14T06:53:51,42.805,6.029,CST-1368DR,4660,5166,11811,01.117,551
2022-07-14T06:56:53,42.805,6.029,CST-1368DR,4660,5165,11808,01.118,551
2022-07-14T06:59:54,42.805,6.029,CST-1368DR,4660,5163,11802,01.120,551
2022-07-14T07:02:56,42.805,6.029,CST-1368DR,4660,5152,11777,01.129,551
2022-07-14T07:05:57,42.805,6.029,CST-1368DR,4661,5166,11806,01.119,551
2022-07-14T07:08:59,42.805,6.029,CST-1368DR,4660,5159,11793,01.123,551
2022-07-14T07:12:00,42.805,6.029,CST-1368DR,4660,5158,11791,01.124,551
2022-07-14T07:15:02,42.805,6.029,CST-1368DR,4660,5157,11790,01.124,551
2022-07-14T07:18:04,42.805,6.029,CST-1368DR,4660,5156,11787,01.125,551
2022-07-14T07:21:05,42.805,6.029,CST-1368DR,4660,5160,11796,01.122,551
2022-07-14T07:24:07,42.805,6.029,CST-1368DR,4660,5155,11784,01.126,551
2022-07-14T07:27:08,42.805,6.029,CST-1368DR,4660,5156,11787,01.125,551
2022-07-14T07:30:10,42.805,6.029,CST-1368DR,4660,5159,11794,01.123,551
2022-07-14T07:33:11,42.805,6.029,CST-1368DR,4660,5159,11794,01.123,551
2022-07-14T07:36:13,42.805,6.029,CST-1368DR,4660,5151,11775,01.129,551
2022-07-14T07:39:15,42.805,6.029,CST-1368DR,4660,5154,11783,01.127,551
2022-07-14T07:42:16,42.805,6.029,CST-1368DR,4660,5154,11782,01.127,551
2022-07-14T07:45:18,42.805,6.029,CST-1368DR,4660,5155,11784,01.126,551
2022-07-14T07:48:19,42.805,6.029,CST-1368DR,4660,5148,11769,01.131,551
2022-07-14T07:51:21,42.805,6.029,CST-1368DR,4660,5154,11781,01.127,551
2022-07-14T07:54:23,42.805,6.029,CST-1368DR,4660,5150,11773,01.130,551
2022-07-14T07:57:24,42.805,6.029,CST-1368DR,4660,5153,11779,01.128,551
2022-07-14T08:00:26,42.805,6.029,CST-1368DR,4660,5153,11779,01.128,551
2022-07-14T08:03:27,42.805,6.029,CST-1368DR,4660,5157,11789,01.125,551
2022-07-14T08:06:29,42.805,6.029,CST-1368DR,4660,5147,11767,01.132,551
2022-07-14T08:09:30,42.805,6.029,CST-1368DR,4660,5149,11772,01.130,551
2022-07-14T08:12:32,42.805,6.029,CST-1368DR,4660,5145,11762,01.134,551
2022-07-14T08:15:34,42.805,6.029,CST-1368DR,4660,5144,11760,01.134,551
2022-07-14T08:18:35,42.805,6.029,CST-1368DR,4660,5148,11769,01.131,551
2022-07-14T08:21:37,42.805,6.029,CST-1368DR,4660,5146,11763,01.133,551
2022-07-14T08:24:38,42.805,6.029,CST-1368DR,4660,5148,11769,01.131,551
2022-07-14T08:27:40,42.805,6.029,CST-1368DR,4660,5143,11758,01.135,551
2022-07-14T08:30:41,42.805,6.029,CST-1368DR,4660,5154,11782,01.127,551
2022-07-14T08:33:43,42.805,6.029,CST-1368DR,4660,5145,11761,01.134,551
2022-07-14T08:36:45,42.805,6.029,CST-1368DR,4660,5147,11767,01.132,551
2022-07-14T08:39:46,42.805,6.029,CST-1368DR,4660,5146,11764,01.133,551
2022-07-14T08:42:48,42.805,6.029,CST-1368DR,4660,5149,11770,01.131,551
2022-07-14T08:45:49,42.805,6.029,CST-1368DR,4660,5147,11765,01.133,551
2022-07-14T08:48:51,42.805,6.029,CST-1368DR,4660,5144,11760,01.134,551
2022-07-14T08:51:53,42.805,6.029,CST-1368DR,4660,5145,11761,01.134,551
2022-07-14T08:54:54,42.805,6.029,CST-1368DR,4660,5142,11756,01.136,551
2022-07-14T08:57:56,42.805,6.029,CST-1368DR,4660,5151,11775,01.129,551
2022-07-14T09:00:57,42.805,6.029,CST-1368DR,4660,5151,11776,01.129,551
2022-07-14T09:03:59,42.805,6.029,CST-1368DR,4660,5147,11765,01.133,551
2022-07-14T09:07:00,42.805,6.029,CST-1368DR,4660,5151,11775,01.129,551
2022-07-14T09:10:02,42.805,6.029,CST-1368DR,4660,5155,11784,01.126,551
2022-07-14T09:13:04,42.805,6.029,CST-1368DR,4660,5152,11777,01.129,551
2022-07-14T09:16:05,42.805,6.029,CST-1368DR,4660,5148,11769,01.131,551
2022-07-14T09:19:07,42.805,6.029,CST-1368DR,4660,5150,11773,01.130,551
2022-07-14T09:22:08,42.805,6.029,CST-1368DR,4660,5136,11741,01.141,551
2022-07-14T09:25:10,42.805,6.029,CST-1368DR,4660,5142,11754,01.136,551
2022-07-14T09:28:12,42.805,6.029,CST-1368DR,4660,5149,11772,01.130,551
2022-07-14T09:31:13,42.805,6.029,CST-1368DR,4660,5151,11776,01.129,551
2022-07-14T09:34:15,42.805,6.029,CST-1368DR,4660,5152,11777,01.129,551
2022-07-14T09:37:16,42.805,6.029,CST-1368DR,4660,5157,11788,01.125,551
2022-07-14T09:40:18,42.805,6.029,CST-1368DR,4660,5148,11768,01.132,551
2022-07-14T09:43:19,42.805,6.029,CST-1368DR,4660,5141,11753,01.137,551
2022-07-14T09:46:21,42.805,6.029,CST-1368DR,4660,5151,11775,01.129,551
2022-07-14T09:49:23,42.805,6.029,CST-1368DR,4660,5143,11758,01.135,551
2022-07-14T09:52:24,42.805,6.029,CST-1368DR,4660,5147,11766,01.132,551
2022-07-14T09:55:26,42.805,6.029,CST-1368DR,4660,5142,11756,01.136,551
2022-07-14T09:58:27,42.805,6.029,CST-1368DR,4660,5149,11771,01.131,551
2022-07-14T10:01:29,42.805,6.029,CST-1368DR,4660,5143,11757,01.135,551
2022-07-14T10:04:30,42.805,6.029,CST-1368DR,4660,5169,11817,01.115,550
2022-07-14T10:07:32,42.805,6.029,CST-1368DR,4660,5156,11787,01.125,551
2022-07-14T10:10:34,42.805,6.029,CST-1368DR,4660,5162,11800,01.121,551
2022-07-14T10:13:35,42.805,6.029,CST-1368DR,4660,5156,11787,01.125,551
2022-07-14T10:16:37,42.805,6.029,CST-1368DR,4660,5147,11767,01.132,551
2022-07-14T10:19:38,42.805,6.029,CST-1368DR,4660,5146,11764,01.133,551
2022-07-14T10:22:40,42.805,6.029,CST-1368DR,4660,5149,11771,01.131,551
2022-07-14T10:25:42,42.805,6.029,CST-1368DR,4660,5157,11788,01.125,551
2022-07-14T10:28:43,42.805,6.029,CST-1368DR,4660,5155,11785,01.126,551
2022-07-14T10:31:45,42.805,6.029,CST-1368DR,4660,5158,11791,01.124,551
2022-07-14T10:34:46,42.805,6.029,CST-1368DR,4660,5146,11764,01.133,551
2022-07-14T10:37:48,42.805,6.029,CST-1368DR,4660,5159,11795,01.122,551
2022-07-14T10:40:49,42.805,6.029,CST-1368DR,4660,5149,11770,01.131,551
2022-07-14T10:43:51,42.805,6.029,CST-1368DR,4660,5153,11780,01.128,551
2022-07-14T10:46:53,42.805,6.029,CST-1368DR,4660,5152,11777,01.129,551
2022-07-14T10:49:54,42.805,6.029,CST-1368DR,4660,5153,11780,01.128,551
2022-07-14T10:52:56,42.805,6.029,CST-1368DR,4660,5151,11775,01.129,551
2022-07-14T10:55:57,42.805,6.029,CST-1368DR,4660,5152,11777,01.129,551
2022-07-14T10:58:59,42.805,6.029,CST-1368DR,4660,5148,11768,01.132,551
2022-07-14T11:02:00,42.805,6.029,CST-1368DR,4660,5152,11777,01.129,551
2022-07-14T11:05:02,42.805,6.029,CST-1368DR,4660,5153,11780,01.128,551
2022-07-14T11:08:04,42.805,6.029,CST-1368DR,4660,5155,11784,01.126,551
2022-07-14T11:11:05,42.805,6.029,CST-1368DR,4660,5149,11771,01.131,551
2022-07-14T11:14:07,42.805,6.029,CST-1368DR,4660,5149,11770,01.131,551
2022-07-14T11:17:08,42.805,6.029,CST-1368DR,4660,5152,11778,01.128,551
2022-07-14T11:20:10,42.805,6.029,CST-1368DR,4660,5142,11755,01.136,551
2022-07-14T11:23:12,42.805,6.029,CST-1368DR,4660,5144,11760,01.134,551
2022-07-14T11:26:13,42.805,6.029,CST-1368DR,4660,5144,11759,01.135,551
2022-07-14T11:29:15,42.805,6.029,CST-1368DR,4660,5148,11769,01.131,551
2022-07-14T11:32:16,42.805,6.029,CST-1368DR,4660,5145,11762,01.134,551
2022-07-14T11:35:18,42.805,6.029,CST-1368DR,4660,5154,11783,01.127,551
2022-07-14T11:38:19,42.805,6.029,CST-1368DR,4660,5145,11762,01.134,551
2022-07-14T11:41:21,42.805,6.029,CST-1368DR,4660,5145,11761,01.134,551
2022-07-14T11:44:23,42.805,6.029,CST-1368DR,4660,5151,11776,01.129,551
2022-07-14T11:47:24,42.805,6.029,CST-1368DR,4660,5151,11775,01.129,551
2022-07-14T11:50:26,42.805,6.029,CST-1368DR,4660,5147,11765,01.133,551
2022-07-14T11:53:27,42.805,6.029,CST-1368DR,4660,5150,11774,01.130,551
2022-07-14T11:56:29,42.805,6.029,CST-1368DR,4660,5153,11781,01.127,551
2022-07-14T11:59:30,42.805,6.029,CST-1368DR,4660,5159,11793,01.123,551
2022-07-14T12:02:32,42.805,6.029,CST-1368DR,4660,5151,11775,01.129,551
2022-07-14T12:05:34,42.805,6.029,CST-1368DR,4660,5159,11794,01.123,551
2022-07-14T12:08:35,42.805,6.029,CST-1368DR,4660,5159,11795,01.122,551
2022-07-14T12:11:37,42.805,6.029,CST-1368DR,4660,5148,11769,01.131,551
2022-07-14T12:14:38,42.805,6.029,CST-1368DR,4660,5185,11853,01.103,551
2022-07-14T12:17:40,42.805,6.029,CST-1368DR,4660,5154,11781,01.127,551
2022-07-14T12:20:42,42.805,6.029,CST-1368DR,4660,5146,11764,01.133,551
2022-07-14T12:23:43,42.805,6.029,CST-1368DR,4660,5166,11809,01.118,551
2022-07-14T12:26:45,42.805,6.029,CST-1368DR,4660,5152,11777,01.129,551
2022-07-14T12:29:46,42.805,6.029,CST-1368DR,4660,5150,11773,01.130,551
2022-07-14T12:32:48,42.805,6.029,CST-1368DR,4660,5155,11784,01.126,551
2022-07-14T12:35:49,42.805,6.029,CST-1368DR,4660,5148,11768,01.132,551
2022-07-14T12:38:51,42.805,6.029,CST-1368DR,4660,5147,11766,01.132,551
2022-07-14T12:41:53,42.805,6.029,CST-1368DR,4660,5145,11761,01.134,551
2022-07-14T12:44:54,42.805,6.029,CST-1368DR,4660,5144,11759,01.135,551
2022-07-14T12:47:56,42.805,6.029,CST-1368DR,4660,5147,11766,01.132,551
2022-07-14T12:50:57,42.805,6.029,CST-1368DR,4660,5144,11759,01.135,551
2022-07-14T12:53:59,42.805,6.029,CST-1368DR,4660,5142,11754,01.136,551
2022-07-14T12:57:01,42.805,6.029,CST-1368DR,4660,5149,11771,01.131,551
2022-07-14T13:00:02,42.805,6.029,CST-1368DR,4660,5143,11758,01.135,551
2022-07-14T13:03:04,42.805,6.029,CST-1368DR,4660,5139,11748,01.138,551
2022-07-14T13:06:05,42.805,6.029,CST-1368DR,4660,5142,11755,01.136,551
2022-07-14T13:09:07,42.805,6.029,CST-1368DR,4660,5141,11752,01.137,551
2022-07-14T13:12:08,42.805,6.029,CST-1368DR,4660,5148,11768,01.132,551
2022-07-14T13:15:10,42.805,6.029,CST-1368DR,4660,5146,11764,01.133,551
2022-07-14T13:18:12,42.805,6.029,CST-1368DR,4660,5144,11759,01.135,551
2022-07-14T13:21:13,42.805,6.029,CST-1368DR,4660,5147,11765,01.133,551
2022-07-14T13:24:15,42.805,6.029,CST-1368DR,4660,5140,11750,01.138,551
2022-07-14T13:27:16,42.805,6.029,CST-1368DR,4660,5139,11748,01.138,551
2022-07-14T13:30:18,42.805,6.029,CST-1368DR,4660,5147,11766,01.132,551
2022-07-14T13:33:19,42.805,6.029,CST-1368DR,4660,5141,11752,01.137,551
2022-07-14T13:36:21,42.805,6.029,CST-1368DR,4660,5143,11757,01.135,551
2022-07-14T13:39:23,42.805,6.029,CST-1368DR,4660,5136,11741,01.141,551
2022-07-14T13:42:24,42.805,6.029,CST-1368DR,4660,5145,11761,01.134,551
2022-07-14T13:45:26,42.805,6.029,CST-1368DR,4660,5138,11747,01.139,551
2022-07-14T13:48:27,42.805,6.029,CST-1368DR,4660,5139,11748,01.138,551
2022-07-14T13:51:29,42.805,6.029,CST-1368DR,4660,5141,11752,01.137,551
2022-07-14T13:54:31,42.805,6.029,CST-1368DR,4659,5120,11706,01.153,551
2022-07-14T13:57:32,42.805,6.029,CST-1368DR,4659,5124,11715,01.150,551
2022-07-14T14:00:34,42.805,6.029,CST-1368DR,4659,5120,11707,01.152,551
2022-07-14T14:03:35,42.805,6.029,CST-1368DR,4659,5134,11740,01.141,551
2022-07-14T14:06:37,42.805,6.029,CST-1368DR,4659,5132,11734,01.143,551
2022-07-14T14:09:38,42.805,6.029,CST-1368DR,4659,5127,11723,01.147,551
2022-07-14T14:12:40,42.805,6.029,CST-1368DR,4659,5129,11728,01.145,551
2022-07-14T14:15:42,42.805,6.029,CST-1368DR,4659,5132,11735,01.143,551
2022-07-14T14:18:43,42.805,6.029,CST-1368DR,4659,5144,11762,01.134,551
2022-07-14T14:21:45,42.805,6.029,CST-1368DR,4659,5139,11751,01.137,551
2022-07-14T14:24:46,42.805,6.029,CST-1368DR,4659,5141,11756,01.136,551
2022-07-14T14:27:48,42.805,6.029,CST-1368DR,4659,5138,11748,01.138,550
2022-07-14T14:30:49,42.805,6.029,CST-1368DR,4659,5139,11751,01.137,551
2022-07-14T14:33:51,42.805,6.029,CST-1368DR,4659,5139,11750,01.138,551
2022-07-14T14:36:53,42.805,6.029,CST-1368DR,4659,5135,11740,01.141,551
2022-07-14T14:39:54,42.805,6.029,CST-1368DR,4659,5137,11746,01.139,551
2022-07-14T14:42:56,42.805,6.029,CST-1368DR,4659,5137,11746,01.139,550
2022-07-14T14:45:57,42.805,6.029,CST-1368DR,4659,5142,11758,01.135,551
2022-07-14T14:48:59,42.805,6.029,CST-1368DR,4659,5136,11744,01.140,551
2022-07-14T14:52:01,42.805,6.029,CST-1368DR,4659,5138,11748,01.138,551
2022-07-14T14:55:02,42.805,6.029,CST-1368DR,4659,5142,11756,01.136,551
2022-07-14T14:58:04,42.805,6.029,CST-1368DR,4659,5135,11740,01.141,551
2022-07-14T15:01:05,42.805,6.029,CST-1368DR,4659,5142,11757,01.135,551
2022-07-14T15:04:07,42.805,6.029,CST-1368DR,4659,5141,11755,01.136,551
2022-07-14T15:07:08,42.805,6.029,CST-1368DR,4659,5143,11759,01.135,551
2022-07-14T15:10:10,42.805,6.029,CST-1368DR,4659,5142,11758,01.135,551
2022-07-14T15:13:12,42.805,6.029,CST-1368DR,4659,5136,11744,01.140,551
2022-07-14T15:16:13,42.805,6.029,CST-1368DR,4659,5142,11758,01.135,551
2022-07-14T15:19:15,42.805,6.029,CST-1368DR,4659,5139,11751,01.137,551
2022-07-14T15:22:16,42.805,6.029,CST-1368DR,4659,5136,11743,01.140,551
2022-07-14T15:25:18,42.805,6.029,CST-1368DR,4659,5140,11754,01.136,551
2022-07-14T15:28:20,42.805,6.029,CST-1368DR,4659,5134,11739,01.142,551
2022-07-14T15:31:21,42.805,6.029,CST-1368DR,4659,5142,11758,01.135,551
2022-07-14T15:34:23,42.805,6.029,CST-1368DR,4659,5143,11760,01.134,551
2022-07-14T15:37:24,42.805,6.029,CST-1368DR,4659,5139,11751,01.137,551
2022-07-14T15:40:26,42.805,6.029,CST-1368DR,4659,5142,11756,01.136,551
2022-07-14T15:43:27,42.805,6.029,CST-1368DR,4659,5135,11741,01.141,551
2022-07-14T15:46:29,42.805,6.029,CST-1368DR,4659,5137,11747,01.139,551
2022-07-14T15:49:31,42.805,6.029,CST-1368DR,4659,5135,11741,01.141,551
2022-07-14T15:52:32,42.805,6.029,CST-1368DR,4659,5134,11740,01.141,551
2022-07-14T15:55:34,42.805,6.029,CST-1368DR,4659,5132,11735,01.143,551
2022-07-14T15:58:35,42.805,6.029,CST-1368DR,4659,5134,11738,01.142,551
2022-07-14T16:01:37,42.805,6.029,CST-1368DR,4659,5137,11746,01.139,551
2022-07-14T16:04:38,42.805,6.029,CST-1368DR,4659,5133,11736,01.143,551
2022-07-14T16:07:40,42.805,6.029,CST-1368DR,4659,5139,11750,01.138,551
2022-07-14T16:10:42,42.805,6.029,CST-1368DR,4659,5164,11807,01.118,551
2022-07-14T16:13:43,42.805,6.029,CST-1368DR,4659,5133,11736,01.143,551
2022-07-14T16:16:45,42.805,6.029,CST-1368DR,4659,5139,11750,01.138,551
2022-07-14T16:19:46,42.805,6.029,CST-1368DR,4659,5139,11751,01.137,551
2022-07-14T16:22:48,42.805,6.029,CST-1368DR,4659,5138,11748,01.138,551
2022-07-14T16:25:49,42.805,6.029,CST-1368DR,4659,5136,11744,01.140,551
2022-07-14T16:28:51,42.805,6.029,CST-1368DR,4659,5139,11750,01.138,551
2022-07-14T16:31:53,42.805,6.029,CST-1368DR,4659,5140,11752,01.137,551
2022-07-14T16:34:54,42.805,6.029,CST-1368DR,4659,5136,11744,01.140,551
2022-07-14T16:37:56,42.805,6.029,CST-1368DR,4659,5135,11742,01.140,551